This is the latest recevied weather packets stored in our database for station/object KB3GVC-13. If no packets are shown the sender has not sent any weather packets the latest 10 day(s).
| Time | Temp. | Humidity | Pressure | Rain* | Wind** | Luminosity | Snow |
|---|---|---|---|---|---|---|---|
| 1777910011 | 20° C | 37% | 1015 hPa | 0 mm | - | - | - |
| 1777909708 | 20° C | 37% | 1014.8 hPa | 0 mm | - | - | - |
| 1777909405 | 20° C | 37% | 1014.9 hPa | 0 mm | - | - | - |
| 1777909103 | 19.44° C | 39% | 1015.1 hPa | 0 mm | - | - | - |
| 1777908801 | 20° C | 39% | 1015.1 hPa | 0 mm | - | - | - |
| 1777908497 | 20.56° C | 39% | 1015 hPa | 0 mm | - | - | - |
| 1777908194 | 19.44° C | 41% | 1015.3 hPa | 0 mm | - | - | - |
| 1777907890 | 19.44° C | 41% | 1015.3 hPa | 0 mm | - | - | - |
| 1777907586 | 19.44° C | 41% | 1015.1 hPa | 0 mm | - | - | - |
| 1777907282 | 19.44° C | 42% | 1015.1 hPa | 0 mm | - | - | - |
| 1777906979 | 19.44° C | 42% | 1015.2 hPa | 0 mm | - | - | - |
| 1777906676 | 19.44° C | 45% | 1015.3 hPa | 0 mm | - | - | - |
| 1777906372 | 18.89° C | 44% | 1015.2 hPa | 0 mm | - | - | - |
| 1777906069 | 18.33° C | 45% | 1015.5 hPa | 0 mm | - | - | - |
| 1777905765 | 18.89° C | 44% | 1015.3 hPa | 0 mm | - | - | - |
| 1777905463 | 18.33° C | 43% | 1015.1 hPa | 0 mm | - | - | - |
| 1777905160 | 18.33° C | 45% | 1015.4 hPa | 0 mm | - | - | - |
| 1777904857 | 18.33° C | 45% | 1015.4 hPa | 0 mm | - | - | - |
| 1777904555 | 17.78° C | 45% | 1015.5 hPa | 0 mm | - | - | - |
| 1777904251 | 17.78° C | 46% | 1015.4 hPa | 0 mm | - | - | - |
| 1777903949 | 18.33° C | 46% | 1015.5 hPa | 0 mm | - | - | - |
| 1777903645 | 17.78° C | 49% | 1015.4 hPa | 0 mm | - | - | - |
| 1777903340 | 17.78° C | 48% | 1015.4 hPa | 0 mm | - | - | - |
| 1777903038 | 17.22° C | 49% | 1015.3 hPa | 0 mm | - | - | - |
| 1777902734 | 16.67° C | 50% | 1015.4 hPa | 0 mm | - | - | - |
* Rain latest hour (hover to see other rain measurements)
** Current wind speed in m/s (hover to see current wind gust speed)